小惑星2014 MH55

2014 MH55

English version
Home page
Updated on September 13, 2014

---------------------------------------------------------------------

・ プロフィール

発見日 2014年6月29日
発見光度 20.9等
発見者 Pan-STARRS 1 telescope (Haleakala)

・ 軌道要素

Epoch 2014 May 23.0 TT = JDT 2456800.5                  MPC
M 359.89290              (2000.0)            P               Q
n   0.00681841     Peri.  188.82316     -0.37782135     +0.03424268
a  27.5431618      Node    67.75284     -0.77675454     +0.53213213
e   0.8384929      Incl.   91.49297     -0.50388830     -0.84596858
P 144.55           H   13.7           G   0.15           U   6

・ 光度変化

        H = 13.7  G = 0.15

---------------------------------------------------------------------

軌道要素はM.P.E.C. 2014-N26に掲載されたものです。
光度グラフはComet for Windowsで作成したものです。

---------------------------------------------------------------------

Copyright(C) Seiichi Yoshida (comet@aerith.net). All rights reserved.